M I D A S
Marine Information and Data Acquisition System
Tripno 1121 of the Zeeleeuw from 2006-04-24 09:05:44 to 2006-04-24 17:00:00
Back to CruiseResearch ActivitiesStationsMapUnderway DataData graphs

EquipmentUnitsComments
TimeDGPSUTC
LatitudeDGPSDM.mWGS84
LongitudeDGPSDM.mWGS84
SpeedMeteo Stationm/sRelative wind speed
DirectionMeteo StationdegRelative wind direction
TemperatureMeteo Stationdeg CelciusAir temperature
PressureMeteo StationPaAtmospheric pressure
HumidityMeteo Station%Relative humidity
Missing or incorrect values are displayed as -999
Metereological data collected by the RV Zeeleeuw from 2006-04-24 06:44:26 to 2006-04-24 09:08:08
Time Latitude Longitude Speed Direction Temperature Pressure Humidity
2006-04-24 06:45 51°13.602 2°56.099 -999 327 10.6 101760 100
2006-04-24 06:46 51°13.602 2°56.099 -999 339 10.7 101760 100
2006-04-24 06:47 51°13.602 2°56.099 -999 348 10.7 101770 100
2006-04-24 06:48 51°13.602 2°56.099 -999 325 10.7 101760 100
2006-04-24 06:49 51°13.602 2°56.099 -999 325 10.8 101760 100
2006-04-24 06:50 51°13.602 2°56.099 -999 228 10.8 101760 100
2006-04-24 06:51 51°13.601 2°56.099 -999 321 10.8 101760 100
2006-04-24 06:52 51°13.601 2°56.099 -999 321 10.8 101760 100
2006-04-24 06:53 51°13.601 2°56.1 -999 334 10.8 101760 100
2006-04-24 06:54 51°13.602 2°56.1 -999 43 10.8 101760 100
2006-04-24 06:55 51°13.602 2°56.1 -999 317 10.8 101760 100
2006-04-24 06:56 51°13.602 2°56.099 -999 228 10.8 101760 100
2006-04-24 06:57 51°13.602 2°56.099 -999 332 10.8 101760 100
2006-04-24 06:58 51°13.602 2°56.099 -999 328 10.8 101750 100
2006-04-24 06:59 51°13.602 2°56.099 -999 327 10.9 101750 100
2006-04-24 07:00 51°13.602 2°56.098 -999 340 10.9 101750 100
2006-04-24 07:01 51°13.603 2°56.099 -999 312 10.9 101750 100
2006-04-24 07:02 51°13.603 2°56.098 -999 337 11 101750 100
2006-04-24 07:03 51°13.603 2°56.098 -999 318 11 101750 100
2006-04-24 07:04 51°13.602 2°56.099 -999 324 11.1 101750 100
2006-04-24 07:05 51°13.602 2°56.099 -999 331 11.1 101750 100
2006-04-24 07:06 51°13.602 2°56.099 -999 43 11.2 101750 100
2006-04-24 07:07 51°13.602 2°56.099 -999 342 11.2 101750 100
2006-04-24 07:08 51°13.602 2°56.099 -999 340 11.2 101750 100
2006-04-24 07:09 51°13.602 2°56.099 -999 320 11.3 101740 100
2006-04-24 07:10 51°13.601 2°56.099 -999 328 11.3 101740 100
2006-04-24 07:11 51°13.601 2°56.099 -999 330 11.4 101740 99
2006-04-24 07:12 51°13.602 2°56.099 -999 323 11.4 101740 99
2006-04-24 07:13 51°13.605 2°56.1 -999 316 11.5 101740 99
2006-04-24 07:14 51°13.6 2°56.099 -999 339 11.5 101740 99
2006-04-24 07:15 51°13.604 2°56.101 -999 315 11.5 101740 99
2006-04-24 07:16 51°13.603 2°56.1 -999 41 11.5 101740 98
2006-04-24 07:17 51°13.601 2°56.1 -999 316 11.5 101740 98
2006-04-24 07:18 51°13.602 2°56.1 -999 311 11.5 101740 98
2006-04-24 07:19 51°13.602 2°56.099 -999 317 11.6 101750 98
2006-04-24 07:20 51°13.602 2°56.099 -999 331 11.7 101740 97
2006-04-24 07:21 51°13.602 2°56.099 -999 270 11.7 101740 97
2006-04-24 07:22 51°13.602 2°56.099 -999 43 11.8 101740 97
2006-04-24 07:23 51°13.602 2°56.099 -999 310 11.8 101740 96
2006-04-24 07:24 51°13.602 2°56.099 -999 229 11.8 101740 96
2006-04-24 07:25 51°13.602 2°56.099 -999 326 11.8 101740 95
2006-04-24 07:26 51°13.602 2°56.099 -999 299 11.8 101740 95
2006-04-24 07:27 51°13.602 2°56.099 -999 320 11.9 -999 95
2006-04-24 07:28 51°13.602 2°56.099 -999 291 11.9 101740 94
2006-04-24 07:29 51°13.602 2°56.099 -999 314 11.9 101740 94
2006-04-24 07:30 51°13.601 2°56.099 -999 308 11.9 101740 93
2006-04-24 07:31 51°13.601 2°56.099 -999 331 12 101740 93
2006-04-24 07:32 51°13.602 2°56.098 -999 319 12 101740 93
2006-04-24 07:33 51°13.602 2°56.098 -999 315 12 101750 93
2006-04-24 07:34 51°13.602 2°56.098 -999 315 12 101750 92
2006-04-24 07:35 51°13.602 2°56.099 -999 311 12 101740 92
2006-04-24 07:36 51°13.602 2°56.098 -999 310 12 101740 92
2006-04-24 07:37 51°13.601 2°56.098 -999 336 12.1 101750 91
2006-04-24 07:38 51°13.601 2°56.099 -999 303 12.1 101740 91
2006-04-24 07:39 51°13.602 2°56.099 -999 333 12.1 101740 91
2006-04-24 07:40 51°13.601 2°56.099 -999 328 12.1 101740 91
2006-04-24 07:41 51°13.601 2°56.099 -999 317 12.1 101740 90
2006-04-24 07:42 51°13.601 2°56.098 -999 331 12.1 101740 91
2006-04-24 07:43 51°13.601 2°56.098 -999 323 12.1 101740 90
2006-04-24 07:44 51°13.601 2°56.099 -999 330 12.1 101740 90
2006-04-24 07:45 51°13.601 2°56.099 -999 324 12.1 101740 90
2006-04-24 07:46 51°13.601 2°56.099 -999 324 12.1 101740 89
2006-04-24 07:47 51°13.601 2°56.099 -999 314 12.2 101740 89
2006-04-24 07:48 51°13.602 2°56.1 -999 341 12.1 101740 89
2006-04-24 07:49 51°13.601 2°56.099 -999 42 12.1 101740 88
2006-04-24 07:50 51°13.602 2°56.099 -999 330 12.2 101750 88
2006-04-24 07:51 51°13.602 2°56.099 -999 321 12.2 101740 88
2006-04-24 07:52 51°13.602 2°56.1 -999 339 12.3 101740 87
2006-04-24 07:53 51°13.602 2°56.1 -999 330 12.4 101740 88
2006-04-24 07:54 51°13.602 2°56.1 -999 321 12.5 101740 88
2006-04-24 07:55 51°13.602 2°56.1 -999 331 12.5 101740 87
2006-04-24 07:56 51°13.602 2°56.1 -999 323 12.6 101740 86
2006-04-24 07:57 51°13.602 2°56.1 -999 329 12.7 101740 87
2006-04-24 07:58 51°13.602 2°56.1 -999 340 12.7 101740 85
2006-04-24 07:59 51°13.603 2°56.1 -999 43 12.7 101730 84
2006-04-24 08:00 51°13.602 2°56.1 -999 302 12.7 101730 84
2006-04-24 08:01 51°13.602 2°56.1 -999 312 12.8 101740 84
2006-04-24 08:02 51°13.602 2°56.1 -999 310 12.8 101730 83
2006-04-24 08:03 51°13.603 2°56.1 -999 314 12.9 101740 83
2006-04-24 08:04 51°13.603 2°56.1 -999 323 12.9 101730 82
2006-04-24 08:05 51°13.603 2°56.099 -999 340 12.9 101730 82
2006-04-24 08:06 51°13.602 2°56.099 -999 310 12.9 101730 82
2006-04-24 08:07 51°13.602 2°56.099 -999 298 13 101730 82
2006-04-24 08:08 51°13.602 2°56.099 -999 310 13 101740 81
2006-04-24 08:09 51°13.601 2°56.1 -999 43 13.1 101740 81
2006-04-24 08:10 51°13.602 2°56.099 -999 330 13.1 101740 80
2006-04-24 08:11 51°13.602 2°56.099 -999 340 13.2 101740 80
2006-04-24 08:12 51°13.602 2°56.099 -999 314 13.2 101740 79
2006-04-24 08:13 51°13.602 2°56.1 -999 330 13.3 101740 79
2006-04-24 08:14 51°13.602 2°56.1 -999 314 13.4 101740 79
2006-04-24 08:15 51°13.602 2°56.1 -999 319 13.4 101740 79
2006-04-24 08:16 51°13.601 2°56.1 -999 318 13.5 101730 78
2006-04-24 08:17 51°13.601 2°56.1 -999 334 13.4 101740 78
2006-04-24 08:18 51°13.6 2°56.101 -999 319 13.5 101730 78
2006-04-24 08:19 51°13.599 2°56.1 -999 345 13.5 101740 78
2006-04-24 08:20 51°13.606 2°56.054 -999 324 13.5 101730 78
2006-04-24 08:21 51°13.636 2°55.958 -999 249 13.5 101730 79
2006-04-24 08:22 51°13.677 2°55.856 -999 295 13.6 101730 78
2006-04-24 08:23 51°13.695 2°55.756 -999 331 13.7 101730 78
2006-04-24 08:24 51°13.7 2°55.715 -999 52 13.8 101730 77
2006-04-24 08:25 51°13.761 2°55.7 -999 31 13.6 101720 77
2006-04-24 08:26 51°13.868 2°55.613 -999 32 13.2 101730 78
2006-04-24 08:27 51°13.994 2°55.517 -999 37 12.6 101730 81
2006-04-24 08:28 51°14.121 2°55.421 -999 43 12 101730 85
2006-04-24 08:29 51°14.253 2°55.283 -999 46 11.4 101730 88
2006-04-24 08:30 51°14.361 2°55.079 -999 54 10.9 101730 90
2006-04-24 08:31 51°14.532 2°54.983 -999 35 10.6 101720 92
2006-04-24 08:32 51°14.738 2°54.966 -999 32 10.4 101720 94
2006-04-24 08:33 51°14.962 2°54.96 -999 36 10.3 101720 95
2006-04-24 08:34 51°15.189 2°54.952 -999 35 10.3 101720 96
2006-04-24 08:35 51°15.416 2°54.945 -999 32 10.2 101720 97
2006-04-24 08:36 51°15.633 2°55.064 -999 15 10.2 101730 97
2006-04-24 08:37 51°15.798 2°55.338 -999 3 10.3 101720 98
2006-04-24 08:38 51°15.93 2°55.644 -999 3 10.3 101720 98
2006-04-24 08:39 51°16.068 2°55.959 -999 4 10.3 101720 98
2006-04-24 08:40 51°16.197 2°56.269 -999 360 10.3 101720 98
2006-04-24 08:41 51°16.333 2°56.58 -999 2 10.3 101720 98
2006-04-24 08:42 51°16.459 2°56.901 -999 2 10.3 101720 98
2006-04-24 09:00 51°18.779 3°2.922 -999 3 10.4 101730 98
2006-04-24 09:01 51°18.926 3°3.219 -999 4 10.4 101730 98
2006-04-24 09:02 51°19.069 3°3.513 -999 9 10.4 101730 98
2006-04-24 09:03 51°19.203 3°3.829 -999 6 10.4 101730 98
2006-04-24 09:04 51°19.335 3°4.141 -999 6 10.4 101730 98
2006-04-24 09:05 51°19.474 3°4.448 -999 359 10.4 101730 98
2006-04-24 09:06 51°19.578 3°4.794 -999 2 10.4 101730 98
2006-04-24 09:07 51°19.703 3°5.116 -999 -999 10.4 101730 98